Location: Grossmotten
(48.5500°N, 15.3833°E)
Time: 14:00:43
(UTC+00:00)

PAYLOAD B - Visible Passes

Search period start: 18 February 2020 00:00
Search period end: 28 February 2020 00:00
Orbit: 850 x 871 km, 99.1° (Epoch: 17 February)

Date Brightness Start Highest point End Pass type
(mag) Time Alt. Az. Time Alt. Az. Time Alt. Az.
18 Feb 6.3 03:39:15 10° NE 03:44:00 28° E 03:48:41 10° SSE visible
18 Feb 4.4 05:19:43 10° N 05:25:08 51° WNW 05:30:28 10° SW visible
18 Feb 7.2 16:53:25 10° SW 16:57:20 19° W 17:01:17 10° NW visible
19 Feb 6.5 03:30:29 10° NE 03:34:55 24° E 03:39:17 10° SE visible
19 Feb 4.3 05:10:40 10° N 05:16:10 60° WNW 05:21:37 10° SSW visible
20 Feb 6.8 03:21:45 10° NE 03:25:48 20° E 03:29:48 10° SE visible
20 Feb 4.2 05:01:38 10° NNE 05:07:13 70° WNW 05:12:43 10° SSW visible
21 Feb 7.0 03:13:08 10° NE 03:16:41 17° E 03:20:12 10° SE visible
21 Feb 4.2 04:52:37 10° NNE 04:58:13 82° WNW 05:03:45 10° SSW visible
22 Feb 7.2 03:04:39 10° NE 03:07:33 14° E 03:10:26 10° ESE visible
22 Feb 4.3 04:43:37 10° NNE 04:49:14 86° ESE 04:54:47 10° SSW visible
23 Feb 7.3 02:56:27 10° ENE 02:58:24 12° E 03:00:20 10° ESE visible
23 Feb 4.5 04:34:38 10° NNE 04:40:14 74° ESE 04:45:46 10° S visible
24 Feb 4.8 04:25:40 10° NNE 04:31:13 63° ESE 04:36:42 10° S visible
25 Feb 5.1 04:16:43 10° NNE 04:22:11 53° E 04:27:35 10° S visible
26 Feb 5.4 04:07:47 10° NNE 04:13:09 45° E 04:18:26 10° S visible
26 Feb 7.9 17:25:11 10° W 17:26:43 11° W 17:28:14 10° WNW visible
27 Feb 5.7 03:58:54 10° NNE 04:04:05 38° E 04:09:13 10° SSE visible
27 Feb 7.6 17:14:54 10° WSW 17:17:34 13° W 17:20:13 10° WNW visible
